TimeMDT,TemperatureF,Dew PointF,Humidity,Sea Level PressureIn,VisibilityMPH,Wind Direction,Wind SpeedMPH,Gust SpeedMPH,PrecipitationIn,Events,Conditions,WindDirDegrees,DateUTC
12:53 AM,53.1,48.0,83,29.92,10.0,Calm,Calm,-,N/A,,Clear,0,2013-06-16 06:53:00
1:53 AM,52.0,46.9,83,29.92,10.0,West,3.5,-,N/A,,Clear,280,2013-06-16 07:53:00
2:53 AM,53.1,46.9,80,29.95,10.0,WSW,9.2,-,N/A,,Clear,250,2013-06-16 08:53:00
3:53 AM,52.0,46.9,83,29.96,10.0,WSW,9.2,-,N/A,,Clear,250,2013-06-16 09:53:00
4:53 AM,52.0,46.9,83,29.96,10.0,WSW,9.2,-,N/A,,Clear,250,2013-06-16 10:53:00
5:53 AM,52.0,46.9,83,29.98,10.0,WSW,9.2,-,N/A,,Clear,250,2013-06-16 11:53:00
6:53 AM,54.0,48.0,80,29.99,10.0,WSW,8.1,-,N/A,,Clear,250,2013-06-16 12:53:00
7:53 AM,59.0,51.1,75,29.99,10.0,West,12.7,-,N/A,,Clear,260,2013-06-16 13:53:00
8:53 AM,64.0,50.0,60,29.99,10.0,West,16.1,20.7,N/A,,Clear,280,2013-06-16 14:53:00
9:53 AM,66.9,51.1,57,30.00,10.0,West,15.0,23.0,N/A,,Clear,280,2013-06-16 15:53:00
10:53 AM,69.1,50.0,51,30.00,10.0,WNW,20.7,26.5,N/A,,Clear,290,2013-06-16 16:53:00
11:53 AM,70.0,48.9,47,30.01,10.0,WNW,21.9,29.9,N/A,,Partly Cloudy,290,2013-06-16 17:53:00
12:53 PM,70.0,50.0,49,30.02,10.0,WNW,19.6,26.5,N/A,,Mostly Cloudy,300,2013-06-16 18:53:00
1:53 PM,71.1,48.9,45,30.01,10.0,West,21.9,32.2,N/A,,Mostly Cloudy,280,2013-06-16 19:53:00
2:53 PM,72.0,48.9,44,30.01,10.0,WNW,21.9,31.1,N/A,,Scattered Clouds,300,2013-06-16 20:53:00
3:53 PM,72.0,51.1,48,30.01,10.0,NW,18.4,29.9,N/A,,Mostly Cloudy,320,2013-06-16 21:53:00
4:53 PM,72.0,50.0,46,30.01,10.0,NW,18.4,32.2,N/A,,Partly Cloudy,320,2013-06-16 22:53:00
5:53 PM,71.1,50.0,47,30.02,10.0,NW,15.0,28.8,N/A,,Clear,320,2013-06-16 23:53:00
6:53 PM,70.0,50.0,49,30.03,10.0,NNW,11.5,-,N/A,,Partly Cloudy,330,2013-06-17 00:53:00
7:53 PM,66.9,51.1,57,30.05,10.0,NNW,6.9,-,N/A,,Partly Cloudy,330,2013-06-17 01:53:00
8:53 PM,61.0,53.1,75,30.06,10.0,North,4.6,-,N/A,,Clear,350,2013-06-17 02:53:00
9:53 PM,55.0,51.1,86,30.08,10.0,NNW,3.5,-,0.00,,Clear,330,2013-06-17 03:53:00
10:53 PM,53.1,48.9,86,30.09,10.0,WNW,3.5,-,N/A,,Clear,290,2013-06-17 04:53:00
11:53 PM,52.0,48.9,89,30.10,10.0,NW,3.5,-,N/A,,Clear,310,2013-06-17 05:53:00